Showing default

RADUGA 9, 12618

Orbit data source: Space-Track

RADUGA 9, 12618 is a payload satellite owned by GUKOS (CIS) in GEO that was launched on Thu, 30 Jul 1981 UTC via a PROTON-K/DM launch vehicle from the Tyuratam Missile And Space Complex (TTMTR). Payloads include a variety of satellites, spacecraft, and rockets equipped with specific instruments for various scientific and technological missions. These include communications satellites like Starlink; space stations such as the ISS; scientific satellites like the Hubble; Earth observation satellites from companies like Planet Labs, Umbra, and HawkEye 360; GPS; miniature CubeSats for education and research; and military/defense satellites.

Not visible in the next 10 days
RADUGA 9 details
Identifier
12618, 1981-069A
Orbit
GEO
Last TLE update20 hours ago
Origin
Flag of CISGUKOS (CIS)
ManufacturerNPO PM
MissionNon-operational Defense Communications
Bus & MotorRADUGA, Unknown motor
Mass1,965 kg wet, ~1,800 kg dry
Launch date (UTC)
1981-07-30 (44 years ago)
Launch vehicle
PROTON-K/DM
Launch site
Tyuratam Missile And Space Complex (TTMTR)
Object type
Payload
Rocket body
Debris
Shape & HBRCyl + 2 Pan, 9.5 m
Radar Cross Section16.975 m², Large (>1 m²)

Expand to show TLE details & history

TLE from 20 hours ago
0 RADUGA 9
1 12618U 81069A   25035.76668492  .00000054  00000-0  00000+0 0  9993
2 12618   7.7632 297.9290 0000944 178.2873 353.1229  1.00347240123345
Epoch: 2025-02-04T18:24Z
Definitive object data (Epoch: 2025-02-04T18:24:01.577Z)
Latitude1.16426°
Longitude58.27205°
Altitude35,760.859 km
Speed3.076 km/s
True Right ascension07h 17m 47s
True Declination1° 09' 47"
Sunlit
Object was in daylight at TLE epoch
Visualization TLE readout
Latitude7.34587°
Longitude-4.25956°
Altitude35,762.887 km
Speed3.076 km/s
Apparent Right ascension03h 14m 26s
Apparent Declination1° 36' 55"
Sunlit
Object is in daylight
Visualization observer readout
Local Sidereal Time16:12:54
Azimuth21.445° NNE
Elevation-46.367°
Doppler factor1
Orbital elements
Apogee altitude35,770.476 km
Perigee altitude35,762.519 km
Semi-major axis42,144.635 km
Eccentricity0.0000944
Inclination7.7632°
RAAN297.929°
Arg. of periapsis178.2873°
True anomaly353.1216°
Mean anomaly353.1229°
Eccentric anomaly353.12225°
Mean motion0.25086 °/min
BSTARUnknown
Orbital period1435.07 mins
Loading historical data...
12618 neighbors
Authenticating...
Loading maneuver chart data...
Loading historical data...
Loading historical data...
Loading historical data...
Loading historical data...
Loading historical data...
Loading historical data...
Loading historical data...

RADUGA 9 Visibility forecast

Observer location: undefined°, undefined

RADUGA 9 is not visible in the next 10 days
Span
Click to sort rows by Start time (UTC) header in descending order
Start Az.
Max El. time (UTC)
Max El. Az.
Max El.
End time (UTC)
End Az.
|